| time (UTC) | temp C | wind direction | speed KPH | gust KPH | rain 1hr cm | rain 24hr cm | rain mn cm | humidity % | barometer mb |
| 20260504050409 | 5 | 330 | 22.5 | 0.0 | 0.00 | 0.00 | 0.00 | 81 | 1016.0 |
| 20260504044900 | 2 | 330 | 16.1 | 0.0 | 0.00 | 0.00 | 0.00 | 87 | 1016.0 |
| 20260504043359 | 2 | 330 | 16.1 | 0.0 | 0.00 | 0.00 | 0.00 | 87 | 1016.0 |
| 20260504041900 | 2 | 330 | 16.1 | 0.0 | 0.00 | 0.00 | 0.00 | 87 | 1016.0 |
| 20260504040359 | 2 | 330 | 16.1 | 0.0 | 0.00 | 0.00 | 0.00 | 87 | 1016.0 |
| 20260504034900 | 2 | 330 | 14.5 | 0.0 | 0.00 | 0.00 | 0.00 | 81 | 1016.0 |
| 20260504033359 | 2 | 330 | 14.5 | 0.0 | 0.00 | 0.00 | 0.00 | 81 | 1016.0 |
| 20260504031856 | 2 | 330 | 14.5 | 0.0 | 0.00 | 0.00 | 0.00 | 81 | 1016.0 |
| 20260504030524 | -17 | 0.0 | 0.0 | 0.00 | 0.00 | 0.00 | |||
| 20260504024857 | -17 | 0.0 | 0.0 | 0.00 | 0.00 | 0.00 | |||
| 20260504023359 | -17 | 0.0 | 0.0 | 0.00 | 0.00 | 0.00 | |||
| 20260504021856 | -17 | 0.0 | 0.0 | 0.00 | 0.00 | 0.00 | |||
| 20260504020400 | -17 | 0.0 | 0.0 | 0.00 | 0.00 | 0.00 | |||
| 20260504014900 | -17 | 0.0 | 0.0 | 0.00 | 0.00 | 0.00 | |||
| 20260504013405 | -17 | 0.0 | 0.0 | 0.00 | 0.00 | 0.00 | |||
| 20260504012023 | -17 | 0.0 | 0.0 | 0.00 | 0.00 | 0.00 | |||
| 20260504010400 | -17 | 0.0 | 0.0 | 0.00 | 0.00 | 0.00 | |||
| 20260504005023 | -17 | 0.0 | 0.0 | 0.00 | 0.00 | 0.00 | |||
| 20260504003359 | -17 | 0.0 | 0.0 | 0.00 | 0.00 | 0.00 | |||
| 20260504001900 | -17 | 0.0 | 0.0 | 0.00 | 0.00 | 0.00 | |||
| 20260504000401 | -17 | 0.0 | 0.0 | 0.00 | 0.00 | 0.00 | |||
| 20260503234936 | 3 | 90 | 9.7 | 0.0 | 0.00 | 0.00 | 0.00 | 81 | 1018.0 |
| 20260503233359 | 3 | 90 | 9.7 | 0.0 | 0.00 | 0.00 | 0.00 | 81 | 1018.0 |
| 20260503231900 | -17 | 0.0 | 0.0 | 0.00 | 0.00 | 0.00 | |||
| 20260503230412 | -17 | 0.0 | 0.0 | 0.00 | 0.00 | 0.00 | |||
| 20260503224856 | -17 | 0.0 | 0.0 | 0.00 | 0.00 | 0.00 | |||
| 20260503223408 | -17 | 0.0 | 0.0 | 0.00 | 0.00 | 0.00 | |||
| 20260503221916 | -17 | 0.0 | 0.0 | 0.00 | 0.00 | 0.00 | |||
| 20260503220441 | -17 | 0.0 | 0.0 | 0.00 | 0.00 | 0.00 | |||
| 20260503214903 | 5 | 120 | 11.3 | 0.0 | 0.00 | 0.00 | 0.00 | 81 | 1019.0 |
| 20260503213359 | 5 | 120 | 11.3 | 0.0 | 0.00 | 0.00 | 0.00 | 81 | 1019.0 |
| 20260503211900 | 5 | 120 | 11.3 | 0.0 | 0.00 | 0.00 | 0.00 | 81 | 1019.0 |
| 20260503210359 | 5 | 120 | 11.3 | 0.0 | 0.00 | 0.00 | 0.00 | 81 | 1019.0 |
| 20260503204906 | 5 | 120 | 11.3 | 0.0 | 0.00 | 0.00 | 0.00 | 81 | 1019.0 |
| 20260503203522 | -17 | 0.0 | 0.0 | 0.00 | 0.00 | 0.00 | |||
| 20260503201900 | 5 | 120 | 9.7 | 0.0 | 0.00 | 0.00 | 0.00 | 81 | 1019.0 |
| 20260503200409 | 5 | 120 | 9.7 | 0.0 | 0.00 | 0.00 | 0.00 | 81 | 1019.0 |
| 20260503194925 | 5 | 120 | 9.7 | 0.0 | 0.00 | 0.00 | 0.00 | 81 | 1019.0 |
| 20260503193524 | -17 | 0.0 | 0.0 | 0.00 | 0.00 | 0.00 | |||
| 20260503191857 | -17 | 0.0 | 0.0 | 0.00 | 0.00 | 0.00 | |||
| 20260503190400 | -17 | 0.0 | 0.0 | 0.00 | 0.00 | 0.00 | |||
| 20260503185022 | -17 | 0.0 | 0.0 | 0.00 | 0.00 | 0.00 | |||
| 20260503183359 | 7 | 130 | 9.7 | 0.0 | 0.00 | 0.00 | 0.00 | 81 | 1019.0 |
| 20260503181859 | 7 | 130 | 9.7 | 0.0 | 0.00 | 0.00 | 0.00 | 81 | 1019.0 |
| 20260503180359 | 7 | 130 | 9.7 | 0.0 | 0.00 | 0.00 | 0.00 | 81 | 1019.0 |
| 20260503174919 | 12 | 40 | 14.5 | 0.0 | 0.00 | 0.00 | 0.00 | 67 | 1019.0 |
| 20260503173424 | 12 | 40 | 14.5 | 0.0 | 0.00 | 0.00 | 0.00 | 67 | 1019.0 |
| 20260503171859 | 12 | 40 | 14.5 | 0.0 | 0.00 | 0.00 | 0.00 | 67 | 1019.0 |
| 20260503170400 | 12 | 40 | 14.5 | 0.0 | 0.00 | 0.00 | 0.00 | 67 | 1019.0 |
| 20260503150359 | -17 | 0.0 | 0.0 | 0.00 | 0.00 | 0.00 | |||
| 20260503130400 | -17 | 0.0 | 0.0 | 0.00 | 0.00 | 0.00 | |||
| 20260503110420 | 13 | 30 | 22.5 | 0.0 | 0.00 | 0.00 | 0.00 | 41 | 1021.0 |
| 20260503090420 | -17 | 0.0 | 0.0 | 0.00 | 0.00 | 0.00 | |||
| 20260503080410 | 12 | 50 | 25.7 | 0.0 | 0.00 | 0.00 | 0.00 | 51 | 1022.0 |
| 20260503071858 | 11 | 30 | 22.5 | 0.0 | 0.00 | 0.00 | 0.00 | 54 | 1022.0 |
| 20260503070400 | 11 | 30 | 22.5 | 0.0 | 0.00 | 0.00 | 0.00 | 54 | 1022.0 |
| 20260503054859 | 6 | 10 | 17.7 | 0.0 | 0.00 | 0.00 | 0.00 | 81 | 1022.0 |
| 20260503053359 | 6 | 10 | 17.7 | 0.0 | 0.00 | 0.00 | 0.00 | 81 | 1022.0 |
| 20260503051856 | 6 | 10 | 17.7 | 0.0 | 0.00 | 0.00 | 0.00 | 81 | 1022.0 |